| time (UTC) | temp C | wind direction | speed KPH | gust KPH | rain 1hr cm | rain 24hr cm | rain mn cm | humidity % | barometer mb |
| 20260510055930 | 5 | 102 | 0.0 | 1.6 | 0.00 | 0.00 | 0.00 | 58 | 935.6 |
| 20260510055426 | 5 | 113 | 0.0 | 0.0 | 0.00 | 0.00 | 0.00 | 57 | 935.5 |
| 20260510054924 | 5 | 105 | 0.0 | 8.0 | 0.00 | 0.00 | 0.00 | 55 | 935.5 |
| 20260510054420 | 6 | 123 | 0.0 | 0.0 | 0.00 | 0.00 | 0.00 | 54 | 935.7 |
| 20260510053915 | 6 | 91 | 0.0 | 0.0 | 0.00 | 0.00 | 0.00 | 52 | 935.8 |
| 20260510053411 | 6 | 92 | 0.0 | 0.0 | 0.00 | 0.00 | 0.00 | 52 | 935.6 |
| 20260510052907 | 6 | 82 | 0.0 | 0.0 | 0.00 | 0.00 | 0.00 | 52 | 935.6 |
| 20260510052403 | 6 | 116 | 0.0 | 3.2 | 0.00 | 0.00 | 0.00 | 51 | 935.7 |
| 20260510051859 | 6 | 123 | 1.6 | 3.2 | 0.00 | 0.00 | 0.00 | 52 | 935.6 |
| 20260510051356 | 6 | 134 | 0.0 | 3.2 | 0.00 | 0.00 | 0.00 | 53 | 935.6 |
| 20260510050852 | 6 | 81 | 0.0 | 0.0 | 0.00 | 0.00 | 0.00 | 52 | 935.8 |
| 20260510050349 | 6 | 77 | 0.0 | 0.0 | 0.00 | 0.00 | 0.00 | 51 | 935.5 |
| 20260510045846 | 7 | 92 | 0.0 | 0.0 | 0.00 | 0.00 | 0.00 | 50 | 935.5 |
| 20260510045343 | 7 | 103 | 0.0 | 0.0 | 0.00 | 0.00 | 0.00 | 51 | 935.5 |
| 20260510044840 | 7 | 104 | 0.0 | 0.0 | 0.00 | 0.00 | 0.00 | 50 | 935.7 |
| 20260510044337 | 7 | 101 | 0.0 | 0.0 | 0.00 | 0.00 | 0.00 | 50 | 935.3 |
| 20260510043833 | 7 | 93 | 0.0 | 0.0 | 0.00 | 0.00 | 0.00 | 50 | 935.7 |
| 20260510043329 | 7 | 97 | 0.0 | 0.0 | 0.00 | 0.00 | 0.00 | 51 | 935.2 |
| 20260510042827 | 8 | 99 | 0.0 | 0.0 | 0.00 | 0.00 | 0.00 | 48 | 935.3 |
| 20260510042323 | 8 | 78 | 0.0 | 0.0 | 0.00 | 0.00 | 0.00 | 47 | 935.1 |
| 20260510041820 | 8 | 75 | 0.0 | 0.0 | 0.00 | 0.00 | 0.00 | 47 | 935.3 |
| 20260510041317 | 8 | 85 | 0.0 | 0.0 | 0.00 | 0.00 | 0.00 | 46 | 935.2 |
| 20260510040814 | 8 | 67 | 0.0 | 0.0 | 0.00 | 0.00 | 0.00 | 44 | 935.1 |
| 20260510040311 | 8 | 66 | 0.0 | 0.0 | 0.00 | 0.00 | 0.00 | 43 | 935.1 |
| 20260510035806 | 8 | 68 | 0.0 | 0.0 | 0.00 | 0.00 | 0.00 | 41 | 935.0 |
| 20260510035306 | 9 | 87 | 0.0 | 0.0 | 0.00 | 0.00 | 0.00 | 41 | 934.9 |
| 20260510034758 | 9 | 68 | 0.0 | 0.0 | 0.00 | 0.00 | 0.00 | 39 | 934.7 |
| 20260510034256 | 9 | 62 | 0.0 | 0.0 | 0.00 | 0.00 | 0.00 | 41 | 934.3 |
| 20260510033752 | 9 | 61 | 0.0 | 0.0 | 0.00 | 0.00 | 0.00 | 41 | 934.4 |
| 20260510033250 | 8 | 61 | 0.0 | 0.0 | 0.00 | 0.00 | 0.00 | 42 | 934.5 |
| 20260510032746 | 9 | 61 | 0.0 | 0.0 | 0.00 | 0.00 | 0.00 | 43 | 934.3 |
| 20260510032242 | 10 | 74 | 0.0 | 0.0 | 0.00 | 0.00 | 0.00 | 41 | 934.2 |
| 20260510031737 | 10 | 77 | 0.0 | 0.0 | 0.00 | 0.00 | 0.00 | 39 | 934.2 |
| 20260510031233 | 11 | 70 | 0.0 | 0.0 | 0.00 | 0.00 | 0.00 | 38 | 934.1 |
| 20260510030733 | 12 | 64 | 0.0 | 0.0 | 0.00 | 0.00 | 0.00 | 36 | 933.9 |
| 20260510030231 | 12 | 11 | 0.0 | 0.0 | 0.00 | 0.00 | 0.00 | 33 | 933.9 |
| 20260510025728 | 12 | 7 | 0.0 | 0.0 | 0.00 | 0.00 | 0.00 | 33 | 933.9 |
| 20260510025225 | 13 | 316 | 0.0 | 0.0 | 0.00 | 0.00 | 0.00 | 33 | 933.5 |
| 20260510024722 | 13 | 353 | 0.0 | 0.0 | 0.00 | 0.00 | 0.00 | 32 | 933.6 |
| 20260510024219 | 13 | 18 | 0.0 | 1.6 | 0.00 | 0.00 | 0.00 | 33 | 933.6 |
| 20260510023714 | 13 | 18 | 0.0 | 0.0 | 0.00 | 0.00 | 0.00 | 33 | 933.5 |
| 20260510023211 | 13 | 14 | 0.0 | 0.0 | 0.00 | 0.00 | 0.00 | 32 | 933.4 |
| 20260510022707 | 13 | 349 | 0.0 | 0.0 | 0.00 | 0.00 | 0.00 | 31 | 933.3 |
| 20260510022201 | 14 | 7 | 0.0 | 8.0 | 0.00 | 0.00 | 0.00 | 30 | 933.3 |
| 20260510021658 | 15 | 332 | 9.7 | 14.5 | 0.00 | 0.00 | 0.00 | 29 | 933.2 |
| 20260510021156 | 15 | 348 | 1.6 | 8.0 | 0.00 | 0.00 | 0.00 | 28 | 933.3 |
| 20260510020656 | 15 | 339 | 1.6 | 12.9 | 0.00 | 0.00 | 0.00 | 27 | 933.2 |
| 20260510020151 | 16 | 3 | 12.9 | 16.1 | 0.00 | 0.00 | 0.00 | 25 | 933.3 |
| 20260510015647 | 16 | 313 | 3.2 | 12.9 | 0.00 | 0.00 | 0.00 | 25 | 933.2 |
| 20260510015138 | 16 | 10 | 3.2 | 17.7 | 0.00 | 0.00 | 0.00 | 25 | 933.1 |
| 20260510014633 | 16 | 332 | 8.0 | 14.5 | 0.00 | 0.00 | 0.00 | 23 | 932.9 |
| 20260510014131 | 16 | 330 | 8.0 | 20.9 | 0.00 | 0.00 | 0.00 | 23 | 933.2 |
| 20260510013630 | 16 | 340 | 20.9 | 29.0 | 0.00 | 0.00 | 0.00 | 22 | 932.9 |
| 20260510013126 | 16 | 314 | 6.4 | 24.1 | 0.00 | 0.00 | 0.00 | 22 | 933.2 |
| 20260510012626 | 17 | 348 | 14.5 | 17.7 | 0.00 | 0.00 | 0.00 | 22 | 932.9 |
| 20260510012123 | 17 | 301 | 14.5 | 27.4 | 0.00 | 0.00 | 0.00 | 22 | 933.1 |
| 20260510011622 | 17 | 321 | 16.1 | 22.5 | 0.00 | 0.00 | 0.00 | 21 | 933.3 |
| 20260510011118 | 17 | 328 | 14.5 | 27.4 | 0.00 | 0.00 | 0.00 | 21 | 933.2 |
| 20260510010615 | 17 | 342 | 11.3 | 25.7 | 0.00 | 0.00 | 0.00 | 20 | 933.2 |
| 20260510010112 | 17 | 294 | 11.3 | 27.4 | 0.00 | 0.00 | 0.00 | 20 | 932.9 |
| 20260510005607 | 17 | 312 | 16.1 | 27.4 | 0.00 | 0.00 | 0.00 | 20 | 932.8 |
| 20260510005105 | 17 | 332 | 24.1 | 33.8 | 0.00 | 0.00 | 0.00 | 19 | 932.9 |
| 20260510004603 | 17 | 300 | 11.3 | 24.1 | 0.00 | 0.00 | 0.00 | 20 | 933.2 |
| 20260510004101 | 17 | 323 | 16.1 | 29.0 | 0.00 | 0.00 | 0.00 | 19 | 932.7 |
| 20260510003557 | 17 | 325 | 24.1 | 35.4 | 0.00 | 0.00 | 0.00 | 19 | 932.8 |
| 20260510003053 | 17 | 331 | 17.7 | 24.1 | 0.00 | 0.00 | 0.00 | 20 | 932.9 |
| 20260510002548 | 17 | 352 | 20.9 | 29.0 | 0.00 | 0.00 | 0.00 | 20 | 932.9 |
| 20260510002046 | 17 | 319 | 14.5 | 27.4 | 0.00 | 0.00 | 0.00 | 20 | 932.8 |
| 20260510001542 | 18 | 297 | 11.3 | 25.7 | 0.00 | 0.00 | 0.00 | 21 | 932.7 |
| 20260510001041 | 18 | 300 | 6.4 | 14.5 | 0.00 | 0.00 | 0.00 | 21 | 932.7 |
| 20260510000536 | 18 | 291 | 6.4 | 22.5 | 0.00 | 0.00 | 0.00 | 20 | 933.1 |
| 20260510000033 | 18 | 327 | 17.7 | 25.7 | 0.00 | 0.00 | 0.00 | 20 | 933.1 |
| 20260509235530 | 18 | 349 | 20.9 | 27.4 | 0.00 | 0.00 | 0.00 | 20 | 933.1 |
| 20260509235027 | 18 | 335 | 9.7 | 17.7 | 0.00 | 0.00 | 0.00 | 20 | 933.1 |
| 20260509234523 | 18 | 307 | 9.7 | 20.9 | 0.00 | 0.00 | 0.00 | 21 | 932.8 |
| 20260509234021 | 18 | 304 | 11.3 | 35.4 | 0.00 | 0.00 | 0.00 | 21 | 932.9 |
| 20260509233518 | 18 | 2 | 12.9 | 22.5 | 0.00 | 0.00 | 0.00 | 20 | 932.7 |
| 20260509233015 | 18 | 265 | 3.2 | 12.9 | 0.00 | 0.00 | 0.00 | 20 | 932.8 |
| 20260509232512 | 18 | 356 | 9.7 | 16.1 | 0.00 | 0.00 | 0.00 | 20 | 932.9 |
| 20260509232008 | 18 | 307 | 8.0 | 17.7 | 0.00 | 0.00 | 0.00 | 21 | 933.1 |
| 20260509231505 | 18 | 340 | 17.7 | 24.1 | 0.00 | 0.00 | 0.00 | 20 | 932.9 |
| 20260509231002 | 18 | 339 | 27.4 | 35.4 | 0.00 | 0.00 | 0.00 | 20 | 933.2 |
| 20260509230459 | 18 | 307 | 9.7 | 24.1 | 0.00 | 0.00 | 0.00 | 22 | 933.1 |
| 20260509225955 | 18 | 292 | 3.2 | 16.1 | 0.00 | 0.00 | 0.00 | 22 | 932.9 |
| 20260509225451 | 18 | 303 | 17.7 | 38.6 | 0.00 | 0.00 | 0.00 | 21 | 932.9 |
| 20260509224947 | 18 | 298 | 17.7 | 29.0 | 0.00 | 0.00 | 0.00 | 20 | 932.7 |
| 20260509224443 | 18 | 346 | 14.5 | 24.1 | 0.00 | 0.00 | 0.00 | 20 | 932.9 |
| 20260509223940 | 18 | 309 | 17.7 | 22.5 | 0.00 | 0.00 | 0.00 | 21 | 932.8 |
| 20260509223436 | 18 | 310 | 11.3 | 27.4 | 0.00 | 0.00 | 0.00 | 21 | 933.1 |
| 20260509222934 | 18 | 280 | 8.0 | 12.9 | 0.00 | 0.00 | 0.00 | 21 | 932.9 |
| 20260509222429 | 18 | 291 | 12.9 | 33.8 | 0.00 | 0.00 | 0.00 | 20 | 932.9 |
| 20260509221925 | 18 | 321 | 14.5 | 27.4 | 0.00 | 0.00 | 0.00 | 20 | 932.8 |
| 20260509221422 | 18 | 301 | 16.1 | 29.0 | 0.00 | 0.00 | 0.00 | 20 | 932.7 |
| 20260509220918 | 18 | 6 | 14.5 | 20.9 | 0.00 | 0.00 | 0.00 | 20 | 932.8 |
| 20260509220414 | 18 | 346 | 6.4 | 14.5 | 0.00 | 0.00 | 0.00 | 21 | 932.8 |
| 20260509215910 | 18 | 294 | 14.5 | 22.5 | 0.00 | 0.00 | 0.00 | 21 | 932.7 |
| 20260509215406 | 18 | 324 | 19.3 | 32.2 | 0.00 | 0.00 | 0.00 | 20 | 932.7 |
| 20260509214904 | 18 | 359 | 11.3 | 27.4 | 0.00 | 0.00 | 0.00 | 19 | 932.8 |
| 20260509214400 | 18 | 309 | 19.3 | 32.2 | 0.00 | 0.00 | 0.00 | 20 | 932.3 |
| 20260509213858 | 18 | 353 | 29.0 | 33.8 | 0.00 | 0.00 | 0.00 | 18 | 932.7 |
| 20260509213354 | 18 | 324 | 11.3 | 33.8 | 0.00 | 0.00 | 0.00 | 19 | 932.6 |
| 20260509212852 | 18 | 333 | 12.9 | 27.4 | 0.00 | 0.00 | 0.00 | 18 | 932.5 |
| 20260509212349 | 18 | 336 | 27.4 | 35.4 | 0.00 | 0.00 | 0.00 | 17 | 932.6 |
| 20260509211844 | 18 | 338 | 24.1 | 37.0 | 0.00 | 0.00 | 0.00 | 18 | 932.8 |
| 20260509211340 | 18 | 323 | 12.9 | 24.1 | 0.00 | 0.00 | 0.00 | 20 | 932.4 |
| 20260509210837 | 19 | 310 | 17.7 | 32.2 | 0.00 | 0.00 | 0.00 | 18 | 932.7 |
| 20260509210335 | 20 | 290 | 20.9 | 27.4 | 0.00 | 0.00 | 0.00 | 18 | 932.7 |
| 20260509205834 | 19 | 321 | 22.5 | 32.2 | 0.00 | 0.00 | 0.00 | 19 | 932.8 |
| 20260509205329 | 18 | 333 | 9.7 | 20.9 | 0.00 | 0.00 | 0.00 | 19 | 932.8 |
| 20260509204826 | 20 | 288 | 12.9 | 24.1 | 0.00 | 0.00 | 0.00 | 18 | 932.7 |
| 20260509204323 | 19 | 284 | 27.4 | 46.7 | 0.00 | 0.00 | 0.00 | 18 | 932.8 |
| 20260509203819 | 18 | 8 | 19.3 | 25.7 | 0.00 | 0.00 | 0.00 | 19 | 932.6 |
| 20260509203316 | 18 | 334 | 19.3 | 25.7 | 0.00 | 0.00 | 0.00 | 18 | 932.6 |
| 20260509202812 | 18 | 294 | 11.3 | 24.1 | 0.00 | 0.00 | 0.00 | 16 | 932.8 |
| 20260509202308 | 19 | 335 | 19.3 | 35.4 | 0.00 | 0.00 | 0.00 | 20 | 932.7 |
| 20260509201807 | 19 | 299 | 22.5 | 33.8 | 0.00 | 0.00 | 0.00 | 17 | 932.6 |
| 20260509201305 | 18 | 312 | 11.3 | 16.1 | 0.00 | 0.00 | 0.00 | 18 | 932.6 |
| 20260509200801 | 18 | 27 | 14.5 | 27.4 | 0.00 | 0.00 | 0.00 | 18 | 932.4 |
| 20260509200256 | 18 | 296 | 20.9 | 25.7 | 0.00 | 0.00 | 0.00 | 19 | 932.7 |
| 20260509195752 | 18 | 341 | 12.9 | 25.7 | 0.00 | 0.00 | 0.00 | 19 | 932.7 |
| 20260509195247 | 18 | 290 | 24.1 | 27.4 | 0.00 | 0.00 | 0.00 | 18 | 932.7 |
| 20260509194742 | 18 | 349 | 17.7 | 29.0 | 0.00 | 0.00 | 0.00 | 19 | 932.7 |
| 20260509194238 | 18 | 338 | 11.3 | 22.5 | 0.00 | 0.00 | 0.00 | 19 | 933.1 |
| 20260509193735 | 18 | 256 | 6.4 | 24.1 | 0.00 | 0.00 | 0.00 | 21 | 932.8 |
| 20260509193235 | 18 | 312 | 11.3 | 20.9 | 0.00 | 0.00 | 0.00 | 21 | 932.8 |
| 20260509192731 | 18 | 283 | 14.5 | 22.5 | 0.00 | 0.00 | 0.00 | 20 | 932.8 |
| 20260509192226 | 18 | 328 | 11.3 | 17.7 | 0.00 | 0.00 | 0.00 | 19 | 932.8 |
| 20260509191722 | 18 | 334 | 8.0 | 27.4 | 0.00 | 0.00 | 0.00 | 18 | 932.7 |
| 20260509191219 | 18 | 345 | 14.5 | 29.0 | 0.00 | 0.00 | 0.00 | 19 | 933.2 |
| 20260509190715 | 18 | 230 | 12.9 | 20.9 | 0.00 | 0.00 | 0.00 | 20 | 933.2 |
| 20260509190212 | 18 | 247 | 24.1 | 32.2 | 0.00 | 0.00 | 0.00 | 19 | 933.1 |
| 20260509185710 | 18 | 271 | 9.7 | 27.4 | 0.00 | 0.00 | 0.00 | 20 | 933.3 |
| 20260509185206 | 18 | 314 | 24.1 | 32.2 | 0.00 | 0.00 | 0.00 | 20 | 932.9 |
| 20260509184703 | 18 | 359 | 0.0 | 12.9 | 0.00 | 0.00 | 0.00 | 21 | 932.7 |
| 20260509184200 | 17 | 265 | 9.7 | 20.9 | 0.00 | 0.00 | 0.00 | 22 | 933.1 |
| 20260509183656 | 17 | 243 | 6.4 | 22.5 | 0.00 | 0.00 | 0.00 | 21 | 932.8 |
| 20260509183152 | 18 | 332 | 19.3 | 27.4 | 0.00 | 0.00 | 0.00 | 21 | 932.7 |
| 20260509182647 | 18 | 348 | 6.4 | 20.9 | 0.00 | 0.00 | 0.00 | 22 | 932.9 |
| 20260509182145 | 18 | 298 | 3.2 | 14.5 | 0.00 | 0.00 | 0.00 | 21 | 932.9 |
| 20260509181643 | 17 | 320 | 12.9 | 24.1 | 0.00 | 0.00 | 0.00 | 21 | 933.1 |
| 20260509181141 | 17 | 337 | 11.3 | 27.4 | 0.00 | 0.00 | 0.00 | 22 | 933.2 |
| 20260509180637 | 18 | 6 | 6.4 | 17.7 | 0.00 | 0.00 | 0.00 | 20 | 933.1 |
| 20260509180133 | 17 | 1 | 11.3 | 20.9 | 0.00 | 0.00 | 0.00 | 19 | 933.1 |
| 20260509175629 | 17 | 285 | 6.4 | 16.1 | 0.00 | 0.00 | 0.00 | 22 | 933.4 |
| 20260509175126 | 17 | 258 | 14.5 | 22.5 | 0.00 | 0.00 | 0.00 | 18 | 933.2 |
| 20260509174622 | 17 | 256 | 9.7 | 14.5 | 0.00 | 0.00 | 0.00 | 23 | 933.1 |
| 20260509174117 | 17 | 300 | 8.0 | 14.5 | 0.00 | 0.00 | 0.00 | 24 | 933.3 |
| 20260509173613 | 17 | 271 | 8.0 | 16.1 | 0.00 | 0.00 | 0.00 | 23 | 933.3 |
| 20260509173109 | 17 | 340 | 6.4 | 16.1 | 0.00 | 0.00 | 0.00 | 21 | 933.3 |
| 20260509172606 | 17 | 316 | 11.3 | 24.1 | 0.00 | 0.00 | 0.00 | 22 | 933.3 |
| 20260509172102 | 16 | 260 | 16.1 | 27.4 | 0.00 | 0.00 | 0.00 | 22 | 933.3 |
| 20260509171558 | 16 | 327 | 3.2 | 11.3 | 0.00 | 0.00 | 0.00 | 25 | 933.3 |
| 20260509171054 | 16 | 8 | 4.8 | 16.1 | 0.00 | 0.00 | 0.00 | 24 | 933.4 |
| 20260509170550 | 16 | 284 | 6.4 | 17.7 | 0.00 | 0.00 | 0.00 | 24 | 933.3 |
| 20260509170047 | 16 | 246 | 6.4 | 14.5 | 0.00 | 0.00 | 0.00 | 24 | 933.2 |
| 20260509165545 | 16 | 251 | 1.6 | 3.2 | 0.00 | 0.00 | 0.00 | 26 | 933.1 |
| 20260509165041 | 16 | 302 | 1.6 | 11.3 | 0.00 | 0.00 | 0.00 | 25 | 933.3 |
| 20260509164537 | 15 | 326 | 6.4 | 14.5 | 0.00 | 0.00 | 0.00 | 26 | 933.2 |
| 20260509164033 | 15 | 101 | 1.6 | 9.7 | 0.00 | 0.00 | 0.00 | 26 | 933.3 |
| 20260509163531 | 14 | 271 | 3.2 | 11.3 | 0.00 | 0.00 | 0.00 | 27 | 933.4 |
| 20260509163026 | 15 | 244 | 8.0 | 17.7 | 0.00 | 0.00 | 0.00 | 29 | 933.4 |
| 20260509162524 | 15 | 226 | 3.2 | 14.5 | 0.00 | 0.00 | 0.00 | 28 | 933.4 |
| 20260509162019 | 15 | 292 | 11.3 | 17.7 | 0.00 | 0.00 | 0.00 | 28 | 933.3 |
| 20260509161516 | 15 | 246 | 9.7 | 14.5 | 0.00 | 0.00 | 0.00 | 27 | 933.3 |
| 20260509161011 | 15 | 303 | 9.7 | 16.1 | 0.00 | 0.00 | 0.00 | 27 | 933.5 |
| 20260509160507 | 14 | 304 | 8.0 | 14.5 | 0.00 | 0.00 | 0.00 | 28 | 933.4 |
| 20260509160003 | 14 | 267 | 4.8 | 8.0 | 0.00 | 0.00 | 0.00 | 29 | 933.4 |
| 20260509155459 | 14 | 355 | 4.8 | 9.7 | 0.00 | 0.00 | 0.00 | 27 | 933.4 |
| 20260509154955 | 14 | 261 | 4.8 | 11.3 | 0.00 | 0.00 | 0.00 | 29 | 933.5 |
| 20260509154451 | 14 | 246 | 8.0 | 12.9 | 0.00 | 0.00 | 0.00 | 29 | 933.4 |
| 20260509153949 | 14 | 213 | 6.4 | 16.1 | 0.00 | 0.00 | 0.00 | 30 | 933.4 |
| 20260509153446 | 14 | 255 | 8.0 | 12.9 | 0.00 | 0.00 | 0.00 | 30 | 933.5 |
| 20260509152943 | 13 | 33 | 0.0 | 4.8 | 0.00 | 0.00 | 0.00 | 30 | 933.4 |
| 20260509152438 | 13 | 242 | 14.5 | 16.1 | 0.00 | 0.00 | 0.00 | 30 | 933.5 |
| 20260509151936 | 13 | 343 | 12.9 | 16.1 | 0.00 | 0.00 | 0.00 | 30 | 933.5 |
| 20260509151432 | 13 | 12 | 0.0 | 8.0 | 0.00 | 0.00 | 0.00 | 31 | 933.6 |
| 20260509150930 | 13 | 301 | 4.8 | 14.5 | 0.00 | 0.00 | 0.00 | 31 | 933.5 |
| 20260509150427 | 13 | 260 | 8.0 | 11.3 | 0.00 | 0.00 | 0.00 | 31 | 933.5 |
| 20260509145926 | 12 | 125 | 3.2 | 8.0 | 0.00 | 0.00 | 0.00 | 33 | 933.7 |
| 20260509145426 | 12 | 253 | 9.7 | 16.1 | 0.00 | 0.00 | 0.00 | 31 | 933.4 |
| 20260509144921 | 12 | 216 | 6.4 | 14.5 | 0.00 | 0.00 | 0.00 | 32 | 933.5 |
| 20260509144418 | 12 | 263 | 1.6 | 11.3 | 0.00 | 0.00 | 0.00 | 33 | 933.3 |
| 20260509143915 | 12 | 235 | 4.8 | 11.3 | 0.00 | 0.00 | 0.00 | 33 | 933.1 |
| 20260509143413 | 12 | 226 | 4.8 | 12.9 | 0.00 | 0.00 | 0.00 | 34 | 933.2 |
| 20260509142909 | 12 | 265 | 6.4 | 12.9 | 0.00 | 0.00 | 0.00 | 37 | 933.2 |
| 20260509142406 | 11 | 237 | 3.2 | 11.3 | 0.00 | 0.00 | 0.00 | 39 | 933.3 |
| 20260509141901 | 11 | 277 | 1.6 | 9.7 | 0.00 | 0.00 | 0.00 | 43 | 933.1 |
| 20260509141358 | 11 | 244 | 6.4 | 11.3 | 0.00 | 0.00 | 0.00 | 44 | 933.1 |
| 20260509140855 | 10 | 20 | 0.0 | 8.0 | 0.00 | 0.00 | 0.00 | 45 | 933.2 |
| 20260509140352 | 10 | 0 | 3.2 | 4.8 | 0.00 | 0.00 | 0.00 | 48 | 933.3 |
| 20260509135850 | 9 | 4 | 3.2 | 4.8 | 0.00 | 0.00 | 0.00 | 48 | 933.5 |
| 20260509135347 | 9 | 33 | 1.6 | 3.2 | 0.00 | 0.00 | 0.00 | 49 | 933.4 |
| 20260509134844 | 9 | 60 | 1.6 | 1.6 | 0.00 | 0.00 | 0.00 | 48 | 933.1 |
| 20260509134341 | 8 | 67 | 1.6 | 3.2 | 0.00 | 0.00 | 0.00 | 48 | 933.3 |
| 20260509133838 | 7 | 60 | 0.0 | 3.2 | 0.00 | 0.00 | 0.00 | 56 | 933.2 |
| 20260509133335 | 7 | 68 | 3.2 | 3.2 | 0.00 | 0.00 | 0.00 | 58 | 933.1 |
| 20260509132834 | 7 | 72 | 3.2 | 4.8 | 0.00 | 0.00 | 0.00 | 58 | 933.3 |
| 20260509132332 | 8 | 26 | 1.6 | 3.2 | 0.00 | 0.00 | 0.00 | 48 | 933.2 |
| 20260509131828 | 8 | 33 | 1.6 | 1.6 | 0.00 | 0.00 | 0.00 | 49 | 933.1 |
| 20260509131325 | 8 | 34 | 0.0 | 1.6 | 0.00 | 0.00 | 0.00 | 49 | 933.1 |
| 20260509130821 | 7 | 166 | 3.2 | 4.8 | 0.00 | 0.00 | 0.00 | 54 | 933.1 |
| 20260509130317 | 7 | 67 | 0.0 | 3.2 | 0.00 | 0.00 | 0.00 | 51 | 933.1 |
| 20260509125814 | 6 | 68 | 0.0 | 3.2 | 0.00 | 0.00 | 0.00 | 55 | 932.6 |
| 20260509125310 | 6 | 127 | 4.8 | 9.7 | 0.00 | 0.00 | 0.00 | 55 | 932.7 |
| 20260509124807 | 6 | 80 | 0.0 | 0.0 | 0.00 | 0.00 | 0.00 | 54 | 932.5 |
| 20260509124303 | 5 | 103 | 0.0 | 0.0 | 0.00 | 0.00 | 0.00 | 57 | 932.4 |
| 20260509123802 | 5 | 109 | 0.0 | 0.0 | 0.00 | 0.00 | 0.00 | 59 | 932.3 |
| 20260509123259 | 5 | 109 | 0.0 | 0.0 | 0.00 | 0.00 | 0.00 | 58 | 932.3 |
| 20260509122754 | 6 | 90 | 3.2 | 8.0 | 0.00 | 0.00 | 0.00 | 54 | 932.1 |
| 20260509122252 | 6 | 202 | 0.0 | 8.0 | 0.00 | 0.00 | 0.00 | 51 | 931.8 |
| 20260509121748 | 6 | 210 | 0.0 | 3.2 | 0.00 | 0.00 | 0.00 | 52 | 931.9 |
| 20260509121245 | 6 | 274 | 0.0 | 4.8 | 0.00 | 0.00 | 0.00 | 53 | 931.9 |
| 20260509120744 | 5 | 356 | 0.0 | 8.0 | 0.00 | 0.00 | 0.00 | 57 | 931.7 |
| 20260509120241 | 5 | 10 | 0.0 | 0.0 | 0.00 | 0.00 | 0.00 | 60 | 931.8 |
| 20260509115739 | 5 | 54 | 0.0 | 0.0 | 0.00 | 0.00 | 0.00 | 61 | 931.8 |
| 20260509115235 | 5 | 56 | 0.0 | 0.0 | 0.00 | 0.00 | 0.00 | 60 | 931.7 |
| 20260509114734 | 6 | 17 | 0.0 | 0.0 | 0.00 | 0.00 | 0.00 | 58 | 931.6 |
| 20260509114232 | 5 | 256 | 0.0 | 0.0 | 0.00 | 0.00 | 0.00 | 60 | 931.6 |
| 20260509113731 | 4 | 82 | 0.0 | 0.0 | 0.00 | 0.00 | 0.00 | 67 | 931.6 |
| 20260509113228 | 5 | 68 | 0.0 | 0.0 | 0.00 | 0.00 | 0.00 | 65 | 931.3 |
| 20260509112724 | 6 | 43 | 0.0 | 0.0 | 0.00 | 0.00 | 0.00 | 60 | 931.2 |
| 20260509112222 | 6 | 342 | 0.0 | 9.7 | 0.00 | 0.00 | 0.00 | 61 | 931.5 |
| 20260509111718 | 5 | 321 | 1.6 | 8.0 | 0.00 | 0.00 | 0.00 | 64 | 931.5 |
| 20260509111215 | 5 | 299 | 0.0 | 4.8 | 0.00 | 0.00 | 0.00 | 65 | 931.6 |
| 20260509110713 | 5 | 315 | 0.0 | 0.0 | 0.00 | 0.00 | 0.00 | 65 | 931.7 |
| 20260509110209 | 5 | 246 | 0.0 | 1.6 | 0.00 | 0.00 | 0.00 | 65 | 931.3 |
| 20260509105708 | 5 | 43 | 0.0 | 0.0 | 0.00 | 0.00 | 0.00 | 69 | 931.6 |
| 20260509105204 | 4 | 80 | 0.0 | 3.2 | 0.00 | 0.00 | 0.00 | 69 | 931.2 |
| 20260509104702 | 4 | 78 | 0.0 | 0.0 | 0.00 | 0.00 | 0.00 | 69 | 931.5 |
| 20260509104158 | 5 | 74 | 0.0 | 0.0 | 0.00 | 0.00 | 0.00 | 69 | 931.3 |
| 20260509103656 | 5 | 53 | 0.0 | 0.0 | 0.00 | 0.00 | 0.00 | 68 | 931.2 |
| 20260509103154 | 5 | 214 | 1.6 | 8.0 | 0.00 | 0.00 | 0.00 | 68 | 931.3 |
| 20260509102652 | 4 | 3 | 0.0 | 0.0 | 0.00 | 0.00 | 0.00 | 73 | 931.5 |
| 20260509102148 | 4 | 25 | 0.0 | 0.0 | 0.00 | 0.00 | 0.00 | 73 | 931.2 |
| 20260509101644 | 4 | 24 | 0.0 | 3.2 | 0.00 | 0.00 | 0.00 | 74 | 931.2 |
| 20260509101141 | 4 | 17 | 3.2 | 3.2 | 0.00 | 0.00 | 0.00 | 74 | 931.3 |
| 20260509100639 | 3 | 13 | 0.0 | 8.0 | 0.00 | 0.00 | 0.00 | 76 | 931.2 |
| 20260509100136 | 3 | 19 | 0.0 | 0.0 | 0.00 | 0.00 | 0.00 | 79 | 931.1 |
| 20260509095632 | 2 | 48 | 1.6 | 4.8 | 0.00 | 0.00 | 0.00 | 79 | 931.2 |
| 20260509095130 | 3 | 49 | 0.0 | 1.6 | 0.00 | 0.00 | 0.00 | 77 | 931.0 |
| 20260509094626 | 3 | 75 | 0.0 | 0.0 | 0.00 | 0.00 | 0.00 | 77 | 931.2 |
| 20260509094123 | 3 | 76 | 0.0 | 0.0 | 0.00 | 0.00 | 0.00 | 76 | 931.6 |
| 20260509093622 | 3 | 89 | 0.0 | 0.0 | 0.00 | 0.00 | 0.00 | 75 | 931.3 |
| 20260509093118 | 3 | 123 | 0.0 | 0.0 | 0.00 | 0.00 | 0.00 | 75 | 931.1 |
| 20260509092616 | 3 | 149 | 0.0 | 0.0 | 0.00 | 0.00 | 0.00 | 76 | 931.1 |
| 20260509092115 | 3 | 88 | 0.0 | 0.0 | 0.00 | 0.00 | 0.00 | 76 | 931.2 |
| 20260509091612 | 4 | 39 | 4.8 | 4.8 | 0.00 | 0.00 | 0.00 | 75 | 931.1 |
| 20260509091108 | 4 | 36 | 0.0 | 0.0 | 0.00 | 0.00 | 0.00 | 75 | 931.1 |
| 20260509090605 | 4 | 90 | 0.0 | 0.0 | 0.00 | 0.00 | 0.00 | 74 | 931.1 |
| 20260509090057 | 4 | 154 | 6.4 | 11.3 | 0.00 | 0.00 | 0.00 | 74 | 931.2 |
| 20260509085554 | 5 | 152 | 1.6 | 4.8 | 0.00 | 0.00 | 0.00 | 72 | 931.3 |
| 20260509085050 | 5 | 110 | 0.0 | 0.0 | 0.00 | 0.00 | 0.00 | 73 | 931.1 |
| 20260509084547 | 4 | 106 | 3.2 | 9.7 | 0.00 | 0.00 | 0.00 | 74 | 931.3 |
| 20260509084045 | 5 | 120 | 0.0 | 8.0 | 0.00 | 0.00 | 0.00 | 74 | 931.3 |
| 20260509083542 | 5 | 151 | 6.4 | 12.9 | 0.00 | 0.00 | 0.00 | 73 | 931.1 |
| 20260509083038 | 5 | 130 | 0.0 | 4.8 | 0.00 | 0.00 | 0.00 | 72 | 931.2 |
| 20260509082536 | 5 | 137 | 4.8 | 8.0 | 0.00 | 0.00 | 0.00 | 71 | 931.3 |
| 20260509082033 | 5 | 131 | 0.0 | 8.0 | 0.00 | 0.00 | 0.00 | 71 | 931.1 |
| 20260509081530 | 5 | 99 | 0.0 | 0.0 | 0.00 | 0.00 | 0.00 | 70 | 931.2 |
| 20260509081027 | 5 | 46 | 0.0 | 8.0 | 0.00 | 0.00 | 0.00 | 69 | 931.2 |
| 20260509080525 | 6 | 127 | 0.0 | 0.0 | 0.00 | 0.00 | 0.00 | 69 | 931.2 |
| 20260509080023 | 5 | 106 | 0.0 | 0.0 | 0.00 | 0.00 | 0.00 | 69 | 931.2 |
| 20260509075520 | 6 | 89 | 0.0 | 0.0 | 0.00 | 0.00 | 0.00 | 69 | 931.1 |
| 20260509075018 | 6 | 127 | 0.0 | 0.0 | 0.00 | 0.00 | 0.00 | 69 | 931.1 |
| 20260509074515 | 6 | 136 | 0.0 | 0.0 | 0.00 | 0.00 | 0.00 | 69 | 931.2 |
| 20260509074011 | 6 | 108 | 0.0 | 0.0 | 0.00 | 0.00 | 0.00 | 69 | 931.2 |
| 20260509073508 | 5 | 132 | 4.8 | 8.0 | 0.00 | 0.00 | 0.00 | 70 | 931.0 |
| 20260509073004 | 5 | 87 | 0.0 | 0.0 | 0.00 | 0.00 | 0.00 | 70 | 931.1 |
| 20260509072501 | 6 | 136 | 3.2 | 4.8 | 0.00 | 0.00 | 0.00 | 70 | 931.1 |
| 20260509071957 | 6 | 124 | 1.6 | 4.8 | 0.00 | 0.00 | 0.00 | 68 | 931.1 |
| 20260509071454 | 6 | 113 | 0.0 | 0.0 | 0.00 | 0.00 | 0.00 | 67 | 931.0 |
| 20260509070952 | 6 | 110 | 0.0 | 0.0 | 0.00 | 0.00 | 0.00 | 67 | 931.5 |
| 20260509070449 | 6 | 76 | 0.0 | 0.0 | 0.00 | 0.00 | 0.00 | 68 | 931.2 |
| 20260509065944 | 6 | 93 | 0.0 | 4.8 | 0.00 | 0.00 | 0.00 | 67 | 931.0 |
| 20260509065440 | 6 | 66 | 1.6 | 4.8 | 0.00 | 0.00 | 0.00 | 68 | 931.3 |
| 20260509064936 | 6 | 51 | 0.0 | 0.0 | 0.00 | 0.00 | 0.00 | 67 | 931.1 |
| 20260509064434 | 6 | 96 | 0.0 | 4.8 | 0.00 | 0.00 | 0.00 | 67 | 930.9 |
| 20260509063932 | 7 | 93 | 0.0 | 0.0 | 0.00 | 0.00 | 0.00 | 66 | 930.9 |
| 20260509063427 | 7 | 56 | 1.6 | 1.6 | 0.00 | 0.00 | 0.00 | 65 | 931.0 |
| 20260509062924 | 7 | 87 | 0.0 | 0.0 | 0.00 | 0.00 | 0.00 | 62 | 930.9 |
| 20260509062422 | 7 | 104 | 0.0 | 0.0 | 0.00 | 0.00 | 0.00 | 63 | 931.0 |
| 20260509061919 | 7 | 124 | 0.0 | 0.0 | 0.00 | 0.00 | 0.00 | 63 | 931.1 |
| 20260509061417 | 7 | 129 | 0.0 | 0.0 | 0.00 | 0.00 | 0.00 | 63 | 931.0 |
| 20260509060913 | 7 | 122 | 3.2 | 3.2 | 0.00 | 0.00 | 0.00 | 63 | 930.7 |
| 20260509060411 | 8 | 106 | 0.0 | 4.8 | 0.00 | 0.00 | 0.00 | 63 | 931.1 |